Location: Brad
(46.1333°N, 22.7833°E)
Time: 05:03:16
(UTC+00:00)

CZ-4B R/B - Pass Details

Date: 03 February 2023
Orbit: 474 x 640 km, 97.9° (Epoch: 29 March)

Event Time Altitude Azimuth Distance (km) Brightness Sun altitude
Rises 16:55:17 0° 185° (S) 2,811 6.6 -13.9°
Reaches altitude 10° 16:57:37 10° 195° (SSW) 1,886 5.8 -14.3°
Maximum altitude 17:01:23 35° 262° (W) 909 4.6 -15.0°
Drops below altitude 10° 17:04:59 10° 329° (NNW) 1,805 5.7 -15.6°
Sets 17:07:11 0° 339° (NNW) 2,672 6.5 -16.0°
